Change the Weather History Date:

Friday, December 4, 1998

  Actual Average Record
Temperature  
Mean Temperature 60 °F -  
Max Temperature 64 °F 49 °F 66 °F (2001)
Min Temperature 55 °F 26 °F 8 °F (1966)
Degree Days  
Heating Degree Days 6    
Growing Degree Days 10 (Base 50)    
Moisture  
Dew Point 45 °F    
Average Humidity 61    
Maximum Humidity 82    
Minimum Humidity 40    
Precipitation  
Precipitation 0.00 in - - ()
Sea Level Pressure  
Sea Level Pressure 30.20 in    
Wind  
Wind Speed 10 mph (WNW)    
Max Wind Speed 20 mph    
Max Gust Speed 137 mph    
Visibility 10 miles    
Events      
Averages and records for this station are not official NWS values.
T = Trace of Precipitation, MM = Missing Value Source: NWS Daily Summary

Daily Weather History Graph

Daily Weather History Graph

Search for Another Location

Airport or City:

Trip Planner

Search our weather history database for the weather conditions in past years. The results will help you decide how hot, cold, wet, or windy it might be!

Date:

Astronomy

Dec. 04, 1998 Rise Set
Actual Time 7:21 AM EST 5:10 PM EST
Civil Twilight 6:53 AM EST 5:38 PM EST
Nautical Twilight 6:21 AM EST 6:10 PM EST
Astronomical Twilight 5:49 AM EST 6:41 PM EST
Moon 6:36 PM EST (12/4) 8:08 AM EST (12/4)
Length of Visible Light 10h 45m
Length of Day
9h 48m
Full, 98% of the Moon is Illuminated
Dec 4
Full
Dec 10
Last Quarter
Dec 18
New
Dec 26
First Quarter
Jan 1
Full

Hourly Weather History & Observations

Time (EST) Temp. Dew Point Humidity Pressure Visibility Wind Dir Wind Speed Gust Speed Precip Events Conditions
12:15 AM 57.2 °F 48.2 °F 72% 30.17 in 10.0 mi West 8.1 mph - N/A   Clear
12:35 AM 57.2 °F 48.2 °F 72% 30.17 in 10.0 mi West 10.4 mph - N/A   Clear
12:55 AM 57.2 °F 48.2 °F 72% 30.17 in 10.0 mi North - - N/A   Clear
1:15 AM 55.4 °F 46.4 °F 72% 30.17 in 10.0 mi WNW 8.1 mph - N/A   Clear
1:35 AM 55.4 °F 46.4 °F 72% 30.17 in 10.0 mi West 8.1 mph - N/A   Clear
1:55 AM 57.2 °F 48.2 °F 72% 30.17 in 10.0 mi NW 11.5 mph 16.1 mph N/A   Clear
2:15 AM 55.4 °F 46.4 °F 72% 30.17 in 10.0 mi North - - N/A   Clear
2:35 AM 55.4 °F 46.4 °F 72% 30.17 in 10.0 mi West 13.8 mph 118.5 mph N/A   Clear
2:55 AM 55.4 °F 46.4 °F 72% 30.16 in 10.0 mi WNW 16.1 mph 110.5 mph N/A   Clear
3:15 AM 55.4 °F 46.4 °F 72% 30.17 in 10.0 mi WNW 18.4 mph 23.0 mph N/A   Clear
3:35 AM 55.4 °F 46.4 °F 72% 30.17 in 10.0 mi West 13.8 mph - N/A   Clear
3:55 AM 55.4 °F 46.4 °F 72% 30.17 in 10.0 mi WNW 9.2 mph - N/A   Clear
4:15 AM 55.4 °F 46.4 °F 72% 30.16 in 10.0 mi WNW 18.4 mph 23.0 mph N/A   Clear
4:35 AM 55.4 °F 46.4 °F 72% 30.16 in 10.0 mi West 19.6 mph 111.6 mph N/A   Clear
4:55 AM 55.4 °F 46.4 °F 72% 30.16 in 10.0 mi West 19.6 mph 27.6 mph N/A   Clear
5:15 AM 55.4 °F 46.4 °F 72% 30.17 in 10.0 mi West 19.6 mph 24.2 mph N/A   Clear
5:35 AM 55.4 °F 46.4 °F 72% 30.17 in 10.0 mi North - - N/A   Clear
5:55 AM 55.4 °F 48.2 °F 77% 30.18 in 10.0 mi NW 16.1 mph - N/A   Clear
6:15 AM 55.4 °F 48.2 °F 77% 30.19 in 10.0 mi West 9.2 mph - N/A   Clear
6:35 AM 55.4 °F 48.2 °F 77% 30.20 in 10.0 mi North - - N/A   Clear
6:55 AM 55.4 °F 48.2 °F 77% 30.20 in 10.0 mi West 11.5 mph - N/A   Clear
7:15 AM 55.4 °F 48.2 °F 77% 30.21 in 7.0 mi West 10.4 mph 17.3 mph N/A   Clear
7:35 AM 55.4 °F 50.0 °F 82% 30.22 in 7.0 mi West 10.4 mph - N/A   Clear
7:55 AM 55.4 °F 48.2 °F 77% 30.22 in 7.0 mi West 6.9 mph 16.1 mph N/A   Clear
8:10 AM 55.4 °F 48.2 °F 77% 30.22 in 7.0 mi West 8.1 mph - N/A   Scattered Clouds
8:55 AM 57.2 °F 50.0 °F 77% 30.23 in 7.0 mi WNW 8.1 mph - N/A   Clear
9:15 AM 57.2 °F 50.0 °F 77% 30.24 in 7.0 mi West 8.1 mph - N/A   Clear
9:35 AM 57.2 °F 48.2 °F 72% 30.24 in 7.0 mi North - - N/A   Clear
9:55 AM 60.8 °F 50.0 °F 68% 30.24 in 10.0 mi West 9.2 mph - N/A   Clear
10:15 AM 60.8 °F 48.2 °F 63% 30.24 in 10.0 mi WNW 9.2 mph - N/A   Clear
10:35 AM 60.8 °F 46.4 °F 59% 30.24 in 10.0 mi WNW 10.4 mph - N/A   Clear
10:55 AM 60.8 °F 46.4 °F 59% 30.24 in 10.0 mi NW 11.5 mph 33.4 mph N/A   Clear
11:15 AM 60.8 °F 44.6 °F 55% 30.24 in 10.0 mi WNW 8.1 mph 18.4 mph N/A   Clear
11:35 AM 60.8 °F 44.6 °F 55% 30.23 in 10.0 mi WNW 10.4 mph 17.3 mph N/A   Clear
11:55 AM 62.6 °F 44.6 °F 52% 30.22 in 10.0 mi West 12.7 mph 17.3 mph N/A   Clear
12:15 PM 62.6 °F 44.6 °F 52% 30.22 in 10.0 mi WNW 8.1 mph - N/A   Clear
12:35 PM 62.6 °F 44.6 °F 52% 30.21 in 10.0 mi West 8.1 mph 158.8 mph N/A   Clear
12:55 PM 62.6 °F 42.8 °F 48% 30.21 in 10.0 mi West 8.1 mph 136.9 mph N/A   Clear
1:15 PM 64.4 °F 42.8 °F 45% 30.20 in 10.0 mi WSW 4.6 mph - N/A   Clear
1:35 PM 64.4 °F 42.8 °F 45% 30.19 in 10.0 mi West 6.9 mph - N/A   Clear
1:55 PM 64.4 °F 41.0 °F 42% 30.19 in 10.0 mi West 8.1 mph - N/A   Clear
2:15 PM 64.4 °F 41.0 °F 42% 30.18 in 10.0 mi WNW 6.9 mph - N/A   Clear
2:35 PM 64.4 °F 41.0 °F 42% 30.18 in 10.0 mi North - - N/A   Clear
2:55 PM 64.4 °F 39.2 °F 40% 30.18 in 10.0 mi North - - N/A   Clear
3:15 PM 64.4 °F 41.0 °F 42% 30.18 in 10.0 mi WNW 9.2 mph - N/A   Clear
3:35 PM 64.4 °F 41.0 °F 42% 30.19 in 10.0 mi North - - N/A   Clear
3:55 PM 62.6 °F 39.2 °F 42% 30.19 in 10.0 mi North - - N/A   Clear
4:15 PM 62.6 °F 41.0 °F 45% 30.19 in 10.0 mi WNW 9.2 mph - N/A   Clear
4:35 PM 62.6 °F 39.2 °F 42% 30.20 in 10.0 mi WNW 9.2 mph - N/A   Clear
4:55 PM 60.8 °F 41.0 °F 48% 30.20 in 10.0 mi West 9.2 mph 108.2 mph N/A   Clear
5:15 PM 60.8 °F 39.2 °F 45% 30.20 in 10.0 mi WNW 8.1 mph - N/A   Clear
5:35 PM 60.8 °F 41.0 °F 48% 30.19 in 10.0 mi WNW 5.8 mph - N/A   Clear
5:55 PM 60.8 °F 41.0 °F 48% 30.20 in 10.0 mi WNW 6.9 mph - N/A   Clear
6:15 PM 59.0 °F 41.0 °F 51% 30.20 in 10.0 mi West 5.8 mph - N/A   Clear
6:35 PM 59.0 °F 39.2 °F 48% 30.20 in 10.0 mi West 4.6 mph - N/A   Clear
6:55 PM 59.0 °F 39.2 °F 48% 30.20 in 10.0 mi West 3.5 mph - N/A   Clear
7:15 PM 57.2 °F 39.2 °F 51% 30.21 in 10.0 mi WSW 3.5 mph - N/A   Clear
7:35 PM 57.2 °F 37.4 °F 48% 30.20 in 10.0 mi Calm Calm - N/A   Clear
7:55 PM 57.2 °F 37.4 °F 48% 30.20 in 10.0 mi Calm Calm - N/A   Clear
8:15 PM 57.2 °F 41.0 °F 55% 30.20 in 10.0 mi West 3.5 mph - N/A   Clear
8:35 PM 57.2 °F 41.0 °F 55% 30.20 in 10.0 mi WNW 4.6 mph - N/A   Clear
8:55 PM 57.2 °F 41.0 °F 55% 30.20 in 10.0 mi WNW 4.6 mph - N/A   Clear
9:15 PM 55.4 °F 41.0 °F 58% 30.20 in 10.0 mi WNW 3.5 mph - N/A   Clear
9:35 PM 55.4 °F 41.0 °F 58% 30.20 in 10.0 mi Calm Calm - N/A   Clear
9:55 PM 55.4 °F 41.0 °F 58% 30.20 in 10.0 mi Calm Calm - N/A   Clear
10:15 PM 53.6 °F 41.0 °F 62% 30.20 in 10.0 mi WSW 5.8 mph - N/A   Clear
10:35 PM 51.8 °F 41.0 °F 67% 30.20 in 10.0 mi West 3.5 mph - N/A   Clear
10:55 PM 51.8 °F 41.0 °F 67% 30.20 in 10.0 mi Calm Calm - N/A   Clear
11:15 PM 50.0 °F 41.0 °F 71% 30.20 in 10.0 mi Calm Calm - N/A   Clear
11:35 PM 51.8 °F 41.0 °F 67% 30.20 in 10.0 mi Calm Calm - N/A   Clear
11:55 PM 50.0 °F 41.0 °F 71% 30.20 in 10.0 mi West 4.6 mph - N/A   Clear